Regional Weather Roundup
Issued by NWS Upton, NY

Home | Current Version | Previous Version | Text Only | Print | Product List | Glossary On
Versions: 1 2 3 4 5 6 7 8 9 10 11 12 13 14 15 16 17 18 19 20 21 22 23 24 25 26 27 28 29 30 31 32 33 34 35 36 37 38 39 40 41 42 43 44 45 46 47 48 49 50
261
ASUS41 KOKX 260205
RWROKX

Regional Weather Roundup
National Weather Service New York NY
1000 PM EDT FRI MAY 25 2018

Note: "FAIR" indicates few or no clouds below 12,000 feet with no
significant weather and/or obstructions to visibility.

NYZ071-072-176-178-NJZ106-104-260300-
New York City Metro Area

CITY           SKY/WX    TMP DP  RH WIND       PRES   REMARKS
Central Park   FAIR      79  59  50 VRB6      29.87R
Bronx Bot Gard   N/A     81  57  44 W3        29.87R
Bronx Lehman C   N/A     81  59  47 SW12        N/A
LaGuardia Arpt FAIR      82  59  45 SW16      29.84R
Queens College   N/A     81  59  47 SW14        N/A
Kennedy Intl   FAIR      69  62  78 SW10      29.86R
Breezy Point     N/A     72 N/A N/A SW9         N/A
Brooklyn Coll    N/A    N/A N/A N/A SW8         N/A
Staten Island    N/A     79  59  50 SW8         N/A
Newark/Liberty FAIR      80  59  48 SW14      29.84R
Teterboro      FAIR      81  61  50 SW12      29.83R
$$

NYZ177-179-078>081-260300-
Long Island New York

CITY           SKY/WX    TMP DP  RH WIND       PRES   REMARKS
Jones Beach      N/A     64 N/A N/A SW7G15      N/A
Wantagh          N/A     66  59  77 SW12        N/A
Hempstead        N/A    N/A N/A N/A S5        29.89R
Matinecock Pt    N/A     77 N/A N/A SW7         N/A
Farmingdale    FAIR      68  59  73 SW10      29.86R
MacArthur/ISP  FAIR      68  59  73 SW15      29.86R
Stony Brook      N/A     70  59  68 S6          N/A
Shirley        FAIR      69  58  67 SW12G18   29.86S
Mt Sinai Harb    N/A    N/A N/A N/A S8          N/A
Westhampton    FAIR      66  53  63 SW16G25   29.87S
East Hampton   FAIR      65  54  66 SW13G21   29.85S
Southold         N/A     68  57  68 SW9         N/A
Montauk          N/A     68  56  65 SW15G26   29.84F
$$

NYZ052-065-067-260300-
Hudson Valley

CITY           SKY/WX    TMP DP  RH WIND       PRES   REMARKS
White Plains   FAIR      78  57  48 VRB3      29.84R
Larchmont Harb   N/A     73 N/A N/A S15         N/A
Croton On Huds   N/A     81 N/A N/A SW7         N/A
Somers           N/A     75  55  50 SW3         N/A
Brewster         N/A     70  55  60 SE2         N/A
Newburgh       NOT AVBL
Montgomery     FAIR      67  53  61 SW7       29.82R
Otisville        N/A     66  54  63 S3          N/A
Warwick          N/A    N/A N/A N/A SW7         N/A
Suffern          N/A     77  59  53 SW3         N/A
Poughkeepsie   FAIR      70  58  65 CALM      29.80R
Albany         FAIR      71  53  52 S3        29.78R
$$

NJZ001-105-106-008-010-013-015-019>022-104-260300-
New Jersey

CITY           SKY/WX    TMP DP  RH WIND       PRES   REMARKS
Newark/Liberty FAIR      80  59  48 SW14      29.84R
Teterboro      FAIR      81  61  50 SW12      29.83R
Caldwell       FAIR      78  61  55 VRB3      29.85R
Somerville     FAIR      70  64  81 CALM      29.85R
Linden         FAIR      80  57  45 W7        29.86R
Perth Amboy      N/A     79 N/A N/A SW12G18     N/A
Sussex         FAIR      70  61  73 SW3       29.85R
Andover          N/A     70  64  81 CALM      29.87R
Trenton        FAIR      75  62  64 SW7       29.87R
Millville      FAIR     N/A N/A N/A VRB3      29.91S
Atlantic City  FAIR      72  63  73 S7        29.91S
Wrightstown    FAIR      74  63  69 SW9       29.87R
Toms River     FAIR      72  62  71 SW7       29.90R
Belmar         FAIR      75  61  61 S6        29.89R
$$

PAZ047>061-062-071-260300-
Eastern Pennsylvania

CITY           SKY/WX    TMP DP  RH WIND       PRES   REMARKS
Philadelphia   FAIR      76  64  66 S10       29.89R
Allentown      FAIR      77  61  57 SW13      29.87R
Scranton       FAIR      75  59  57 SW5       29.87R
$$

CTZ002-004>006-009-010-012-RIZ004-006-007-MAZ004-011-015-260300-
Southern New England

 In CT

CITY           SKY/WX    TMP DP  RH WIND       PRES   REMARKS
Bradley Intl   FAIR      73  59  61 S6        29.79R
Hartford       FAIR      72  60  66 S8        29.80R
Danbury        FAIR      74  55  51 W6        29.85R
Wtrbury/Oxford FAIR      71  59  65 SW5       29.85R
Norwalk Harbor   N/A     68 N/A N/A SW15G21     N/A
Bridgeport     FAIR      69  59  70 SW7       29.83R
Meriden        FAIR      69  59  70 SE3       29.82R
New Haven      FAIR      69  59  70 SW8       29.83R
Chester        FAIR      68  59  73 SW7       29.84R
Groton         FAIR      63  58  83 SW5       29.83R
Willimantic    FAIR      73  59  61 SW7       29.81R

 In RI

CITY           SKY/WX    TMP DP  RH WIND       PRES   REMARKS
Providence     MOCLDY    71  58  63 SW12      29.81S
Block Island   FAIR      59  54  83 SW17      29.84S
Westerly       FAIR      67  59  75 SW8       29.84S

In MA

CITY           SKY/WX    TMP DP  RH WIND       PRES   REMARKS
Boston         CLOUDY    76  55  48 SW14      29.75R
Worcester      FAIR      70  55  59 SW12      29.81R
Westfield      FAIR      69  53  56 S6        29.79R
Provincetown   FAIR      60  56  86 SW16      29.79S
Nantucket      FAIR      56  54  93 SW12      29.85S
$$

ANZ330-335-338-340-345-350-353-355-260300-
Coastal Marine Observations


STATION/POSITION TIME  SKY/WX   TEMP    WIND        PRES    VSBY  WAVE
                                AIR SEA DIR/SP/G                  HT/PER
                 (UTC)          (F)     (DEG/KT/KT) (MB)    (MI)  (FT/S)
NY Harb Entrance 0150            64 60  200/ 16/ 19 1011.3          4/ 6
20 S Fire Island 0150            61 54  220/ 19/ 21 1011.5          5/ 6
23 SSW Montauk P 0150            61 55  230/ 19/ 23 1010.8          5/ 5
15 E Barnegat Li 0130               60                N/A           4/ 5
Hudson Canyon    0150            59 54  220/ 14/ 17 1012.7          4/ 4
Kings Point      0130            78 59  260/ 13/ 17 1011.5
Execution Rocks  NOT AVBL
Western LI Sound 0120            71     190/ 12/ 14   N/A           1
Central LI Sound 0130            63     200/ 12/ 14   N/A           2
Robbins Reef     0136            80     210/ 11/ 14 1011.3
$$


>>>>>>>>>>>>>>>>>>>>>>>>>>>> KEY <<<<<<<<<<<<<<<<<<<<<<<<<<<
>                                                          <
>     SKY/WX - Sky Condition/Present Weather               <
>     TMP    - Temperature in Fahrenheit                   <
>     DP     - Dew Point in Fahrenheit                     <
>     RH     - Relative Humidity in Percent                <
>     WIND   - Direction (from) and Speed in MPH           <
>     PRES   - Mean Sea Level Pressure (inches of Hg)      <
>     WCI    - Wind Chill Index                            <
>     VSB    - Visibility in Miles                         <
>     HX     - Heat Index                                  <
>     TC     - Temperature in Celsius                      <
>     VRB    - Varibale Wind Direction                     <
>                                                          <
>>>>>>>>>>>>>>>>>>>>>>>>>>>> KEY <<<<<<<<<<<<<<<<<<<<<<<<<<<




USA.gov is the U.S. government's official web portal to all federal, state and local government web resources and services.